Flag Weather past 2 weeks in Metairie, Louisiana, U.S.A.

Now
61 °F

Passing clouds.


Feels Like: 61 °F
Forecast: 47 / 58 °F
Wind: 9 mph from Southwest

Location: New Orleans International Airport

Current Time: Nov 26, 2014 at 6:20:38 PM

Latest Report: Nov 26, 2014 at 5:53 PM


Visibility: 10 mi

Pressure: 30.20 "Hg

Humidity: 48%

Dew point: 41 °F

Location of MetairieLocation

Historic Weather in Metairie — Graph

°F

Metairie temperature yesterday

Maximum temperature yesterday: 56 °F (at 12:53 AM)
Minimum temperature yesterday: 47 °F (at 11:53 PM)
Average temperature yesterday: 53 °F

Past Weeks' High & Low Weather Summary

 TemperatureHumidityPressure
High77 °F (Nov 16, 12:53 PM)97% (Nov 24, 3:53 AM)30.51 "Hg (Nov 24, 3:53 AM)
Low32 °F (Nov 19, 3:53 AM)26% (Nov 26, 12:53 PM)29.65 "Hg (Nov 23, 1:53 PM)
Average54 °F65%30.16 "Hg
* Reported Nov 11 4:53 PM — Nov 26 4:53 PM, Metairie, Weather by CustomWeather, © 2014

Note: Actual official high and low records may vary slightly from our data, if they occured in-between our weather recording intervals... More about our weather records

Advertising

Metairie weather history for previous 24 hours

 ConditionsComfort  
Time TempWeatherWind HumidityBarometerVisibility
4:53 PM
Nov 26
64 °FPassing clouds.14 mph38%30.20 "Hg10 mi
3:53 PM68 °FPassing clouds.17 mph28%30.18 "Hg10 mi
2:53 PM69 °FPassing clouds.15 mph29%30.18 "Hg10 mi
1:53 PM69 °FPassing clouds.16 mph27%30.19 "Hg10 mi
12:53 PM67 °FPassing clouds.9 mph26%30.21 "Hg10 mi
11:53 AM63 °FPassing clouds.10 mph35%30.24 "Hg10 mi
10:53 AM59 °FSunny.8 mph41%30.27 "Hg10 mi
9:53 AM56 °FPassing clouds.7 mph46%30.30 "Hg10 mi
8:53 AM51 °FPassing clouds.7 mph66%30.30 "Hg10 mi
7:53 AM45 °FPassing clouds.5 mph80%30.29 "Hg10 mi
6:53 AM39 °FFog.3 mph89%30.26 "Hg10 mi
5:53 AM39 °FClear.No wind82%30.24 "Hg10 mi
4:53 AM40 °FClear.No wind83%30.23 "Hg10 mi
3:53 AM38 °FClear.No wind79%30.22 "Hg10 mi
2:53 AM40 °FClear.3 mph80%30.21 "Hg10 mi
1:53 AM44 °FClear.3 mph65%30.22 "Hg10 mi
12:53 AM46 °FClear.5 mph58%30.23 "Hg10 mi
11:53 PM
Nov 25
47 °FClear.8 mph61%30.24 "Hg10 mi
10:53 PM48 °FClear.12 mph56%30.23 "Hg10 mi
9:53 PM49 °FPassing clouds.14 mph55%30.23 "Hg10 mi
8:53 PM50 °FPassing clouds.9 mph46%30.23 "Hg10 mi
7:53 PM51 °FPassing clouds.13 mph46%30.23 "Hg10 mi
6:53 PM52 °FPassing clouds.13 mph47%30.21 "Hg10 mi
Weather by CustomWeather, © 2014

See weather overviewHow to use our weather pages